sat.trackr.live / text

‹ back to catalog

STARLINK-30966

NORAD 58454 · 2023-183T

PAYLOAD ACTIVE UNKNOWN

§ Identity

Operator
Country
US
Launch date
2023-11-28
Launch site
AFETR
Launch vehicle
Mass (kg)
RCS (m²)

Purposes: comms

External: N2YO · Heavens-Above · Gunter

§ Orbital elements

Epoch: 2026-09-19T16:17:48.585984Z

Period
94.27 min
Inclination
43.0047°
Eccentricity
0.0001646
Mean motion
15.27561289 rev/d
Perigee alt
482.0 km
Apogee alt
484.2 km
Semi-major
6,861.2 km
B*
1.5931e-4
RAAN
25.9638°
Arg perigee
255.9054°
Mean anomaly
104.1615°
Rev number
15,640

§ Raw data

STARLINK-309661 58454U 23183T   26262.67903456  .00004122  00000+0  15931-3 0  99912 58454  43.0047  25.9638 0001646 255.9054 104.1615 15.27561289156406

JSON: /api/v1/satellites/58454 · /tle

For live sub-satellite position, see the globe view (requires WebGL).

§ Visibility from observer

Set your observer location to see the next 7 days of passes ≥ 10°. The values pass through the URL so the page stays shareable.

No JS? Fill the form by hand. The geolocation button needs JavaScript.